Location: Star Hoppers Observatory
(42.7905°N, 83.6127°W)
Time: 04:14:20
(UTC-04:00)

Daily predictions for brighter satellites

Satellite Brightness Start Highest point End
(mag) Time Altitude Azimuth Time Altitude Azimuth Time Altitude Azimuth
Terra 3.5 00:06:58 31° NW 00:06:58 31° NW 00:09:46 10° NNW
Meteor 2-5 Rocket 4.5 00:01:28 10° NNW 00:06:17 51° NW 00:06:17 51° NW
Cosmos 2263 Rocket 3.5 00:20:09 10° NW 00:23:33 34° WNW 00:23:33 34° WNW
BREEZE-M DEB (TANK) 4.4 00:15:10 10° WNW 00:24:47 44° W 00:24:47 44° W
H-2A R/B 4.0 00:29:30 21° WNW 00:29:30 21° WNW 00:31:57 10° NW
Cosmos 2322 Rocket 3.6 00:29:51 31° WNW 00:30:07 31° NW 00:35:07 10° N
COSMOS 2428 4.4 00:55:04 26° NNE 00:55:04 26° NNE 00:57:29 10° NNE
ATLAS CENTAUR R/B 4.2 00:55:09 76° SSW 00:56:08 83° SE 01:21:11 10° NE
ATLAS 3B R/B 4.2 01:08:52 28° ENE 01:08:52 28° ENE 01:12:30 10° NE
Cosmos 2278 Rocket 3.7 01:06:01 10° NNW 01:09:22 31° NNE 01:09:22 31° NNE
CZ-2C R/B 4.3 01:35:19 10° NNE 01:38:09 31° NNE 01:38:09 31° NNE
Cosmos 2360 Rocket 4.1 01:43:12 23° NW 01:43:12 23° NW 01:47:07 10° N
Lacrosse 4 Rocket 4.4 01:46:02 15° N 01:46:02 15° N 01:47:03 10° N
Cosmos 2219 Rocket 3.7 02:05:32 32° N 02:05:32 32° N 02:08:39 10° NNE
SL-16 R/B 3.7 02:19:06 31° NE 02:19:06 31° NE 02:22:05 10° NNE
COSMOS 2455 3.9 02:19:04 41° N 02:19:04 41° N 02:23:01 10° NNE
Cosmos 2333 Rocket 3.5 02:21:46 36° N 02:21:46 36° N 02:25:20 10° NNE
Cosmos 2237 Rocket 3.5 02:23:22 36° N 02:23:22 36° N 02:26:47 10° NNE
ATLAS 3B R/B 3.3 02:56:06 53° NW 02:56:17 53° NW 03:03:31 10° NNE
CZ-2D R/B 3.9 03:19:15 10° NE 03:23:14 21° E 03:23:57 21° ESE
CZ-3A R/B 3.9 03:21:46 38° WNW 03:23:28 45° NW 03:27:45 10° NE
Cosmos 1943 4.3 03:29:24 35° ESE 03:29:24 35° ESE 03:34:21 10° NE
CZ-4C R/B 2.6 03:33:52 56° NNW 03:33:52 56° NNW 03:39:09 10° NNE
Cosmos 1867 4.4 03:38:08 44° NNW 03:38:08 44° NNW 03:42:40 10° NNE
Cosmos 2369 Rocket 2.9 03:33:51 10° NNW 03:39:18 49° ENE 03:41:29 32° ESE
ADEOS 4.1 03:34:33 10° NNE 03:39:13 55° ENE 03:39:13 55° ENE
ARIANE 5 R/B 3.5 03:35:18 10° NNE 03:40:11 39° E 03:40:23 38° ESE
NPP 4.0 03:36:20 10° N 03:40:49 60° N 03:40:49 60° N
USA 234 3.4 03:41:04 10° NE 03:47:29 55° SE 03:47:57 54° SSE
ATLAS CENTAUR R/B 3.4 03:44:17 10° NNW 03:46:10 23° NNW 03:46:10 23° NNW
S3M 3.9 03:49:07 78° WNW 03:49:07 78° WNW 03:55:22 10° N
USA 238 DEB 4.2 03:48:57 45° WNW 03:49:59 47° NW 03:56:47 10° NNE
USA 238 4.2 03:49:04 45° WNW 03:50:05 48° NW 03:56:53 10° NNE
SL-16 R/B 2.9 03:52:08 34° SE 03:54:48 63° ENE 04:00:55 10° N
Cosmos 158 Rocket 4.2 03:56:31 60° N 03:56:31 60° N 04:00:42 10° NNE
Resurs 1-4 Rocket 2.9 03:52:46 10° NNE 03:57:49 44° E 03:58:41 41° SE
Cosmos 1271 Rocket 4.4 04:02:18 32° N 04:02:18 32° N 04:04:34 10° N
SL-16 R/B 3.6 04:00:59 25° NW 04:00:59 25° NW 04:05:39 10° N
Cosmos 1943 Rocket 3.8 03:57:03 10° N 04:02:12 34° NE 04:07:18 10° ESE
NOSS 3-2 (A) 3.4 04:04:36 68° W 04:05:13 73° NW 04:11:55 10° NNE
Cosmos 2237 Rocket 4.4 04:05:11 12° NW 04:06:22 12° NW 04:08:39 10° NNW
Cosmos 1386 Rocket 4.3 04:01:48 10° N 04:08:08 83° W 04:09:06 65° S
Cosmos 1553 Rocket 4.1 04:08:42 55° WNW 04:08:42 55° WNW 04:14:41 10° N
Cosmos 1745 Rocket 4.0 04:05:50 10° NNW 04:12:04 58° W 04:12:10 58° W
Cosmos 1709 Rocket 4.2 04:07:30 10° N 04:13:51 69° E 04:17:25 27° SSE
Cosmos 1110 Rocket 4.2 04:09:39 10° NNW 04:13:55 57° NW 04:13:55 57° NW
NOSS 3-3 (A) 4.3 04:07:47 10° NW 04:15:11 67° WSW 04:23:02 10° SSE
NOSS 3-3 (C) 4.3 04:07:53 10° NW 04:15:17 68° WSW 04:23:09 10° SSE
Cosmos 2251 Rocket 3.4 04:15:49 78° W 04:15:53 79° WNW 04:21:10 10° NNE
ERS-2 3.3 04:15:31 10° N 04:17:59 40° N 04:17:59 40° N
CENTAUR R/B 3.7 04:19:17 24° SSE 04:21:55 34° ESE 04:27:52 10° NE
NOSS 3-2 (C) 3.5 04:20:58 57° WSW 04:22:10 70° NW 04:28:54 10° NNE
Meteor 1-27 4.1 04:26:20 63° WSW 04:26:51 66° WNW 04:32:24 10° N
UNK 3.6 04:28:06 78° W 04:28:06 78° W 04:32:37 10° NNW
Cosmos 1733 Rocket 3.7 04:25:52 10° N 04:30:10 53° E 04:32:11 29° SE
Abrixas rocket 4.0 04:31:10 29° N 04:31:10 29° N 04:34:05 10° ENE
IRAS Rocket 4.4 04:26:29 10° N 04:31:56 52° WNW 04:32:37 49° W
Cosmos 1707 Rocket 4.2 04:34:35 42° NW 04:34:35 42° NW 04:38:14 10° N
ATLAS 5 CENTAUR R/B 2.1 04:33:28 51° SSE 04:34:23 61° ESE 04:39:31 10° NE
EO 1 Del DPAF 3.1 04:43:02 85° W 04:43:02 85° W 04:46:56 10° NNW
UNKNOWN OBJECT B 2.6 04:40:27 10° NNE 04:44:11 82° ESE 04:44:16 81° SE
MTI 4.2 04:45:27 64° E 04:45:35 65° ENE 04:48:54 10° N
Cosmos 839 Rocket 4.5 04:38:19 10° NW 04:46:00 49° WSW 04:49:55 24° S
PSLV R/B 4.0 04:47:17 46° ESE 04:47:17 46° ESE 04:49:53 10° E
Iridium 2 3.9 04:42:58 10° N 04:46:11 56° NW 04:46:11 56° NW
Meteor 2-10 4.1 04:45:55 46° SSW 04:47:33 71° W 04:52:58 10° N
Cosmos 1869 3.4 04:50:13 49° SSE 04:51:10 74° E 04:55:09 10° NNE
Cosmos 494 Rocket 4.3 04:50:41 44° WSW 04:51:44 51° WNW 04:56:52 10° N
Cosmos 1892 3.4 04:51:36 10° NNW 04:54:28 39° NW 04:54:28 39° NW
CZ-4B R/B 4.4 04:53:16 10° NE 04:56:33 31° E 04:59:29 13° SSE
Cosmos 1908 Rocket 4.5 04:54:37 10° N 04:58:53 48° ENE 05:03:06 10° SSE
Okean O Rocket 2.1 04:56:45 10° NNE 05:01:11 59° E 05:04:08 20° S
CZ-2D R/B 3.5 04:57:03 10° N 05:01:28 85° WNW 05:03:05 38° SSW
Meteor 2-3 Rocket 4.4 04:56:26 10° NNW 05:01:34 34° W 05:02:15 33° WSW
CZ-2D R/B 2.4 04:58:30 10° N 05:03:35 49° WNW 05:05:16 36° WSW
Cosmos 1726 4.4 05:05:06 13° NW 05:05:06 13° NW 05:06:11 10° NW
Cosmos 1302 Rocket 4.2 05:00:17 10° NNW 05:05:19 48° WSW 05:07:50 27° SSW
MOS 1-B 4.3 05:01:12 10° N 05:06:57 68° WNW 05:10:06 28° SSW
IRS-1D 4.3 05:04:56 10° N 05:09:39 36° WNW 05:11:09 30° WSW
Cosmos 2285 Rocket 4.3 05:03:46 10° NNW 05:10:13 70° ENE 05:16:34 10° SSE
Cosmos 2315 Rocket 4.2 05:07:44 30° SW 05:10:34 51° WNW 05:16:42 10° N
Cosmos 1943 4.0 05:11:14 28° W 05:13:16 36° WNW 05:18:28 10° N
COSMOS 2406 3.7 05:08:58 16° S 05:13:34 60° ESE 05:19:14 10° NNE
Sich 1 Rocket 3.5 05:12:00 10° N 05:16:25 87° W 05:20:49 10° S
Cosmos 1703 Rocket 4.3 05:13:04 10° S 05:17:25 54° E 05:21:48 10° NNE
Cosmos 389 Rocket 2.3 05:17:29 42° SW 05:18:28 67° W 05:21:59 10° N
ARIANE 5 R/B 3.6 05:14:43 10° N 05:19:08 28° WNW 05:20:44 24° W
Cosmos 1184 Rocket 3.3 05:19:10 10° NNW 05:22:25 40° W 05:22:41 39° WSW
Cosmos 2369 Rocket 3.1 05:18:31 10° NW 05:22:58 25° WSW 05:23:07 24° WSW
CZ-4C R/B 4.3 05:19:15 10° WNW 05:23:04 18° NNW 05:27:13 10° NNE
CZ-4B DEB 4.3 05:20:40 10° NNE 05:26:10 76° ESE 05:31:37 10° S
Cosmos 1455 3.2 05:26:13 28° W 05:26:49 29° WNW 05:30:17 10° NNW
CZ-4B R/B 3.1 05:22:20 10° NNE 05:27:41 84° ESE 05:32:58 10° SSW
SeaSat 1 2.5 05:23:01 10° S 05:27:51 54° WSW 05:32:42 10° NW
USA 234 3.7 05:24:08 10° NE 05:30:26 51° NNW 05:35:18 17° W
PSLV R/B 3.9 05:30:24 10° N 05:34:04 53° WNW 05:36:16 22° SW
USA 129 3.7 05:35:23 17° E 05:35:32 17° ENE 05:36:33 10° NNE
Resurs 1-4 Rocket 3.3 05:33:09 10° N 05:37:24 25° WNW 05:39:46 18° WSW
PSLV R/B 4.4 05:33:24 10° NNE 05:37:42 52° E 05:41:59 10° S
SL-16 R/B 3.6 05:37:14 19° WSW 05:38:52 21° W 05:43:28 10° NW
COSMOS 2487 4.1 05:37:09 10° S 05:40:26 34° ESE 05:43:45 10° NE
Cosmos 1862 Rocket 4.5 05:40:58 21° WSW 05:42:57 30° WNW 05:46:52 10° NNW
CZ-2C R/B 4.0 05:39:57 10° S 05:44:10 43° W 05:48:24 10° NNW
Cosmos 1943 Rocket 2.6 05:40:47 10° NW 05:45:59 38° WSW 05:51:06 10° S
Cosmos 1174 4.3 05:44:16 14° SW 05:49:02 79° WNW 05:53:25 10° NNE
ADEOS II 2.6 05:46:53 10° NNE 05:52:07 63° ESE 05:57:18 10° S
Cosmos 1190 Rocket 4.1 05:47:16 10° SSW 05:52:27 78° ESE 05:57:39 10° NNE
Okean 2 Rocket 3.1 05:49:27 10° N 05:53:59 88° W 05:58:30 10° S
Thor Agena Rocket 3.5 05:48:58 10° S 05:54:02 62° WSW 05:59:13 10° NNW
Cosmos 1408 3.1 05:51:20 10° NNW 05:54:51 39° W 05:58:21 10° SSW
Okean 1-7 3.0 05:51:36 10° S 05:55:53 90° SSE 06:00:16 10° N
Nadezhda 1 Rocket 4.1 05:51:40 10° SSW 05:57:50 63° W 06:04:10 10° N
Cosmos 1992 Rocket 4.2 05:55:40 10° NNW 06:00:42 49° WSW 06:05:44 10° S
Meteor 1-31 Rocket 4.2 05:58:02 10° NNE 06:01:39 39° E 06:05:13 10° SSE
Cosmos 1825 2.9 05:59:10 10° NNW 06:02:34 31° W 06:05:56 10° SSW
SL-27 R/B 3.6 06:00:36 15° WSW 06:03:00 28° WNW 06:06:11 10° N
Aureole 3 Rocket 3.9 05:56:44 10° SSW 06:03:48 66° W 06:08:47 10° N
Centaur D-1A AC-31 3.5 05:58:26 12° WSW 06:04:15 20° SSW 06:07:39 10° SSE
USA 32 4.2 05:59:41 10° SSW 06:04:47 52° W 06:09:55 10° N
ADEOS Rocket 3.7 05:57:53 10° NNE 06:05:39 88° WNW 06:13:24 10° SSW
Abrixas rocket 3.0 06:05:18 10° WNW 06:08:35 53° NNE 06:11:53 10° E
Cosmos 2181 Rocket 4.4 06:03:14 10° S 06:09:39 75° E 06:16:02 10° N
CENTAUR R/B 3.0 06:06:29 11° WSW 06:12:19 49° NW 06:19:07 10° NNE
Cosmos 1782 Rocket 4.0 06:12:02 10° NNW 06:16:05 39° W 06:20:07 10° SSW
Cosmos 1656 Rocket 3.9 06:12:12 10° NW 06:17:18 43° WSW 06:22:22 10° S
ATLAS 5 CENTAUR R/B 3.4 06:15:25 10° W 06:19:31 25° NW 06:23:53 10° NNE
NAVSTAR 52 R/B(PAM-D 4.4 06:19:07 11° SW 06:20:21 19° S 06:21:39 10° SE
AVUM R/B 3.2 06:18:29 10° SSW 06:21:41 89° ESE 06:25:03 10° NNE
PSLV R/B 3.8 06:20:33 10° W 06:23:50 43° SSW 06:27:04 10° ESE
Cosmos 2154 Rocket 4.2 06:17:56 10° NNW 06:24:05 55° W 06:30:14 10° SSW
Feng Yun 1-1 Rocket 4.2 06:22:09 10° N 06:27:30 67° WNW 06:32:52 10° SSW
